| time (UTC) | temp F | wind direction | speed knots | gust knots | rain 1hr in | rain 24hr in | rain mn in | humidity % | barometer mb |
| 20260506072030 | 57 | 331 | 13.9 | 21.7 | 0.00 | 0.03 | 0.03 | 90 | 1026.1 |
| 20260506071025 | 57 | 327 | 13.0 | 21.7 | 0.00 | 0.03 | 0.03 | 90 | 1026.1 |
| 20260506062040 | 57 | 322 | 12.2 | 22.6 | 0.00 | 0.03 | 0.03 | 91 | 1025.8 |
| 20260506061036 | 57 | 328 | 12.2 | 23.5 | 0.00 | 0.03 | 0.03 | 91 | 1025.5 |
| 20260506051026 | 57 | 320 | 15.6 | 26.1 | 0.00 | 0.03 | 0.03 | 90 | 1025.8 |
| 20260506045017 | 57 | 333 | 13.9 | 23.5 | 0.00 | 0.03 | 0.03 | 89 | 1026.0 |
| 20260506044031 | 57 | 327 | 14.8 | 26.1 | 0.00 | 0.03 | 0.03 | 89 | 1026.0 |
| 20260506043107 | 57 | 342 | 13.9 | 21.7 | 0.00 | 0.03 | 0.03 | 89 | 1026.0 |
| 20260506042022 | 57 | 345 | 15.6 | 25.2 | 0.00 | 0.03 | 0.03 | 89 | 1025.9 |
| 20260506041017 | 58 | 328 | 12.2 | 21.7 | 0.00 | 0.03 | 0.03 | 89 | 1026.1 |
| 20260506040032 | 58 | 329 | 12.2 | 18.2 | 0.00 | 0.03 | 0.03 | 88 | 1026.1 |
| 20260506035047 | 58 | 336 | 11.3 | 20.0 | 0.00 | 0.03 | 0.03 | 89 | 1026.1 |
| 20260506034022 | 58 | 340 | 11.3 | 20.0 | 0.00 | 0.03 | 0.03 | 89 | 1026.0 |
| 20260506033017 | 58 | 322 | 13.0 | 20.9 | 0.00 | 0.03 | 0.03 | 89 | 1026.0 |
| 20260506032032 | 58 | 331 | 13.0 | 22.6 | 0.00 | 0.03 | 0.03 | 89 | 1026.1 |
| 20260506031027 | 57 | 341 | 13.0 | 20.0 | 0.00 | 0.03 | 0.03 | 89 | 1026.1 |
| 20260506030022 | 57 | 334 | 13.0 | 20.0 | 0.00 | 0.03 | 0.03 | 89 | 1026.0 |
| 20260506025017 | 57 | 332 | 13.0 | 22.6 | 0.00 | 0.03 | 0.03 | 89 | 1026.0 |
| 20260506024032 | 57 | 349 | 13.0 | 20.9 | 0.00 | 0.03 | 0.03 | 89 | 1026.0 |
| 20260506023027 | 57 | 341 | 13.9 | 19.1 | 0.00 | 0.03 | 0.03 | 89 | 1025.9 |
| 20260506022022 | 57 | 331 | 13.0 | 21.7 | 0.00 | 0.03 | 0.03 | 89 | 1025.7 |
| 20260506021017 | 57 | 333 | 10.4 | 19.1 | 0.00 | 0.03 | 0.03 | 89 | 1025.8 |
| 20260506020032 | 57 | 332 | 12.2 | 18.2 | 0.00 | 0.03 | 0.03 | 89 | 1025.9 |
| 20260506015027 | 57 | 334 | 13.0 | 19.1 | 0.00 | 0.03 | 0.03 | 88 | 1026.0 |
| 20260506014042 | 57 | 335 | 11.3 | 18.2 | 0.00 | 0.03 | 0.03 | 89 | 1026.0 |
| 20260506013017 | 56 | 336 | 12.2 | 20.9 | 0.00 | 0.03 | 0.03 | 89 | 1026.1 |
| 20260506012032 | 56 | 336 | 13.9 | 22.6 | 0.01 | 0.03 | 0.03 | 91 | 1026.2 |
| 20260506011027 | 56 | 345 | 9.6 | 13.9 | 0.01 | 0.03 | 0.03 | 91 | 1026.3 |
| 20260506010022 | 56 | 343 | 9.6 | 15.6 | 0.01 | 0.03 | 0.03 | 91 | 1026.5 |
| 20260506005017 | 56 | 344 | 11.3 | 20.9 | 0.01 | 0.03 | 0.03 | 91 | 1026.4 |
| 20260506004032 | 56 | 333 | 11.3 | 19.1 | 0.01 | 0.02 | 0.02 | 91 | 1026.6 |
| 20260506003027 | 56 | 332 | 11.3 | 18.2 | 0.02 | 0.02 | 0.02 | 91 | 1026.7 |
| 20260506002022 | 56 | 332 | 12.2 | 21.7 | 0.01 | 0.02 | 0.02 | 90 | 1026.8 |
| 20260506001017 | 56 | 346 | 16.5 | 26.1 | 0.02 | 0.02 | 0.02 | 91 | 1026.9 |
| 20260506000052 | 56 | 337 | 13.9 | 21.7 | 0.02 | 0.02 | 0.02 | 91 | 1026.9 |
| 20260505235028 | 56 | 333 | 10.4 | 16.5 | 0.01 | 0.01 | 0.01 | 91 | 1027.0 |
| 20260505234043 | 56 | 336 | 13.0 | 23.5 | 0.01 | 0.01 | 0.01 | 91 | 1027.1 |
| 20260505233018 | 56 | 332 | 12.2 | 21.7 | 0.00 | 0.00 | 0.00 | 91 | 1027.2 |
| 20260505232033 | 56 | 333 | 10.4 | 18.2 | 0.00 | 0.00 | 0.00 | 89 | 1027.1 |
| 20260505231028 | 56 | 331 | 13.0 | 21.7 | 0.00 | 0.00 | 0.00 | 89 | 1027.1 |
| 20260505230023 | 56 | 335 | 15.6 | 25.2 | 0.00 | 0.00 | 0.00 | 90 | 1027.2 |
| 20260505225018 | 56 | 326 | 16.5 | 24.3 | 0.00 | 0.00 | 0.00 | 90 | 1027.3 |
| 20260505224034 | 56 | 325 | 13.0 | 24.3 | 0.00 | 0.00 | 0.00 | 90 | 1027.4 |
| 20260505223028 | 56 | 342 | 13.9 | 24.3 | 0.00 | 0.00 | 0.00 | 89 | 1027.3 |
| 20260505222023 | 56 | 335 | 13.0 | 20.9 | 0.00 | 0.00 | 0.00 | 89 | 1027.4 |
| 20260505221018 | 56 | 331 | 10.4 | 19.1 | 0.00 | 0.00 | 0.00 | 90 | 1027.3 |
| 20260505220034 | 55 | 333 | 11.3 | 20.0 | 0.00 | 0.00 | 0.00 | 90 | 1027.5 |
| 20260505215029 | 55 | 332 | 11.3 | 19.1 | 0.00 | 0.00 | 0.00 | 90 | 1027.5 |
| 20260505214024 | 55 | 343 | 11.3 | 15.6 | 0.00 | 0.00 | 0.00 | 90 | 1027.6 |
| 20260505213019 | 55 | 354 | 12.2 | 20.9 | 0.00 | 0.00 | 0.00 | 89 | 1027.4 |
| 20260505212034 | 55 | 350 | 11.3 | 17.4 | 0.00 | 0.00 | 0.00 | 89 | 1027.5 |
| 20260505211030 | 55 | 349 | 11.3 | 20.0 | 0.00 | 0.00 | 0.00 | 88 | 1027.6 |
| 20260505210025 | 55 | 319 | 12.2 | 22.6 | 0.00 | 0.00 | 0.00 | 88 | 1027.8 |
| 20260505205040 | 55 | 341 | 8.7 | 17.4 | 0.00 | 0.00 | 0.00 | 87 | 1027.7 |
| 20260505204035 | 55 | 331 | 10.4 | 18.2 | 0.00 | 0.00 | 0.00 | 87 | 1027.7 |
| 20260505203030 | 55 | 339 | 13.0 | 23.5 | 0.00 | 0.00 | 0.00 | 87 | 1027.8 |
| 20260505202025 | 55 | 334 | 12.2 | 20.0 | 0.00 | 0.00 | 0.00 | 86 | 1027.8 |
| 20260505201020 | 55 | 332 | 13.0 | 19.1 | 0.00 | 0.00 | 0.00 | 86 | 1027.9 |
| 20260505200035 | 55 | 333 | 11.3 | 17.4 | 0.00 | 0.00 | 0.00 | 86 | 1027.8 |
| 20260505195030 | 54 | 329 | 10.4 | 17.4 | 0.00 | 0.00 | 0.00 | 87 | 1027.7 |
| 20260505194045 | 54 | 342 | 8.7 | 16.5 | 0.00 | 0.00 | 0.00 | 87 | 1027.6 |
| 20260505193020 | 54 | 341 | 8.7 | 13.9 | 0.00 | 0.00 | 0.00 | 87 | 1027.7 |
| 20260505192056 | 54 | 333 | 9.6 | 19.1 | 0.00 | 0.00 | 0.00 | 87 | 1027.6 |
| 20260505191051 | 54 | 347 | 9.6 | 15.6 | 0.00 | 0.00 | 0.00 | 87 | 1027.5 |
| 20260505190026 | 54 | 353 | 10.4 | 16.5 | 0.00 | 0.00 | 0.00 | 87 | 1027.6 |
| 20260505185021 | 53 | 347 | 11.3 | 15.6 | 0.00 | 0.00 | 0.00 | 87 | 1027.6 |
| 20260505184015 | 53 | 352 | 10.4 | 14.8 | 0.00 | 0.00 | 0.00 | 87 | 1027.7 |
| 20260505183031 | 53 | 360 | 10.4 | 17.4 | 0.00 | 0.00 | 0.00 | 86 | 1027.7 |
| 20260505182026 | 53 | 354 | 13.0 | 18.2 | 0.00 | 0.00 | 0.00 | 87 | 1027.7 |
| 20260505181021 | 53 | 360 | 12.2 | 19.1 | 0.00 | 0.00 | 0.00 | 87 | 1027.6 |
| 20260505180036 | 53 | 349 | 11.3 | 18.2 | 0.00 | 0.00 | 0.00 | 87 | 1027.9 |
| 20260505175031 | 53 | 354 | 9.6 | 16.5 | 0.00 | 0.00 | 0.00 | 86 | 1027.9 |
| 20260505174027 | 53 | 344 | 10.4 | 22.6 | 0.00 | 0.00 | 0.00 | 86 | 1027.9 |
| 20260505173021 | 53 | 346 | 10.4 | 18.2 | 0.00 | 0.00 | 0.00 | 85 | 1028.0 |
| 20260505172016 | 53 | 348 | 12.2 | 20.0 | 0.00 | 0.00 | 0.00 | 85 | 1028.0 |
| 20260505171032 | 53 | 344 | 9.6 | 14.8 | 0.00 | 0.00 | 0.00 | 84 | 1028.0 |
| 20260505170026 | 53 | 350 | 11.3 | 24.3 | 0.00 | 0.00 | 0.00 | 84 | 1028.0 |
| 20260505165042 | 54 | 335 | 13.0 | 20.9 | 0.00 | 0.00 | 0.00 | 83 | 1028.1 |
| 20260505164017 | 54 | 329 | 10.4 | 16.5 | 0.00 | 0.00 | 0.00 | 83 | 1028.1 |
| 20260505163032 | 53 | 326 | 14.8 | 26.1 | 0.00 | 0.00 | 0.00 | 84 | 1028.2 |
| 20260505162027 | 53 | 329 | 12.2 | 22.6 | 0.00 | 0.00 | 0.00 | 83 | 1028.2 |
| 20260505161022 | 53 | 342 | 11.3 | 20.0 | 0.00 | 0.00 | 0.00 | 83 | 1028.4 |
| 20260505153022 | 54 | 329 | 14.8 | 23.5 | 0.00 | 0.00 | 0.00 | 80 | 1028.7 |
| 20260505152018 | 54 | 339 | 13.0 | 21.7 | 0.00 | 0.00 | 0.00 | 80 | 1028.8 |
| 20260505151033 | 54 | 338 | 12.2 | 21.7 | 0.00 | 0.00 | 0.00 | 80 | 1029.0 |
| 20260505124019 | 53 | 360 | 10.4 | 16.5 | 0.00 | 0.00 | 0.00 | 73 | 1030.2 |
| 20260505123054 | 53 | 5 | 12.2 | 19.1 | 0.00 | 0.00 | 0.00 | 73 | 1030.4 |
| 20260505122030 | 52 | 345 | 9.6 | 18.2 | 0.00 | 0.00 | 0.00 | 74 | 1030.3 |
| 20260505121025 | 52 | 354 | 8.7 | 17.4 | 0.00 | 0.00 | 0.00 | 74 | 1030.1 |
| 20260505120020 | 52 | 348 | 7.0 | 16.5 | 0.00 | 0.00 | 0.00 | 74 | 1030.3 |
| 20260505115034 | 52 | 6 | 10.4 | 18.2 | 0.00 | 0.00 | 0.00 | 75 | 1030.2 |
| 20260505114030 | 52 | 14 | 10.4 | 18.2 | 0.00 | 0.00 | 0.00 | 74 | 1030.3 |
| 20260505113025 | 52 | 10 | 10.4 | 18.2 | 0.00 | 0.00 | 0.00 | 74 | 1030.3 |
| 20260505112020 | 52 | 11 | 9.6 | 17.4 | 0.00 | 0.00 | 0.00 | 74 | 1030.2 |
| 20260505111035 | 52 | 11 | 10.4 | 19.1 | 0.00 | 0.00 | 0.00 | 75 | 1030.3 |
| 20260505102031 | 51 | 14 | 11.3 | 18.2 | 0.00 | 0.00 | 0.00 | 76 | 1030.6 |
| 20260505101026 | 51 | 22 | 10.4 | 16.5 | 0.00 | 0.00 | 0.00 | 77 | 1030.6 |
| 20260505100022 | 51 | 11 | 11.3 | 19.1 | 0.00 | 0.00 | 0.00 | 76 | 1030.8 |
| 20260505095016 | 51 | 15 | 10.4 | 16.5 | 0.00 | 0.00 | 0.00 | 75 | 1030.8 |
| 20260505094031 | 52 | 7 | 10.4 | 15.6 | 0.00 | 0.00 | 0.00 | 74 | 1030.7 |
| 20260505093026 | 52 | 6 | 9.6 | 17.4 | 0.00 | 0.00 | 0.00 | 75 | 1030.7 |
| 20260505092022 | 52 | 0 | 9.6 | 14.8 | 0.00 | 0.00 | 0.00 | 75 | 1030.9 |
| 20260505091017 | 52 | 352 | 10.4 | 15.6 | 0.00 | 0.00 | 0.00 | 75 | 1030.7 |
| 20260505090031 | 52 | 4 | 9.6 | 16.5 | 0.00 | 0.00 | 0.00 | 75 | 1030.9 |
| 20260505085027 | 51 | 9 | 11.3 | 19.1 | 0.00 | 0.00 | 0.00 | 76 | 1030.8 |
| 20260505084022 | 51 | 354 | 10.4 | 15.6 | 0.00 | 0.00 | 0.00 | 76 | 1030.8 |
| 20260505083017 | 51 | 343 | 10.4 | 19.1 | 0.00 | 0.00 | 0.00 | 77 | 1030.8 |
| 20260505082032 | 51 | 349 | 11.3 | 18.2 | 0.00 | 0.00 | 0.00 | 78 | 1030.8 |
| 20260505081027 | 51 | 350 | 10.4 | 19.1 | 0.00 | 0.00 | 0.00 | 78 | 1030.9 |
| 20260505080022 | 51 | 357 | 12.2 | 20.0 | 0.00 | 0.00 | 0.00 | 79 | 1030.9 |
| 20260505075017 | 51 | 6 | 13.9 | 20.0 | 0.00 | 0.00 | 0.00 | 79 | 1031.0 |
| 20260505074032 | 51 | 1 | 13.0 | 19.1 | 0.00 | 0.00 | 0.00 | 79 | 1030.9 |
| 20260505073047 | 51 | 358 | 12.2 | 20.0 | 0.00 | 0.00 | 0.00 | 80 | 1031.0 |